Regional Weather Roundup
Issued by NWS

Home | Current Version | Previous Version | Text Only | Print | Product List | Glossary On
Versions: 1 2 3 4 5 6 7 8 9 10 11 12 13 14 15 16 17 18 19 20 21 22 23 24 25 26 27 28 29 30 31 32 33 34 35 36 37 38 39 40 41 42 43 44 45 46 47 48 49 50
000
ASUS43 KMPX 051510
RWRMN
WEATHER ROUNDUP FOR MINNESOTA
NATIONAL WEATHER SERVICE TWIN CITIES/CHANHASSEN MN
1000 AM CDT TUE MAY 05 2015


NOTE: "FAIR" INDICATES FEW OR NO CLOUDS BELOW 12,000 FEET WITH NO
SIGNIFICANT WEATHER AND/OR OBSTRUCTIONS TO VISIBILITY. N/A MEANS
CURRENT SKY AND/OR WEATHER CONDITIONS ARE NOT AVAILABLE.

MNZ060>063-068>070-051600-
   Twin Cities Metro

CITY           SKY/WX    TMP DP  RH WIND       PRES   REMARKS
TWIN CITIES    MOSUNNY   62  43  49 SE16      30.20F
ST PAUL        SUNNY     63  42  46 SE13G20   30.21F
CRYSTAL        SUNNY     63  40  42 E9        30.19F
BLAINE         MOSUNNY   63  41  45 E9        30.21S
LAKEVILLE      MOSUNNY   61  46  59 E14       30.18F
EDEN PRAIRIE   MOSUNNY   61  43  51 E12       30.18F
SOUTH ST PAUL  SUNNY     63  40  43 E8G16     30.20S
LAKE ELMO      FAIR      63  41  45 SE13      30.22F
$$
MNZ001>005-007-008-013>017-022>024-027-028-051600-
   Northwest Minnesota

CITY           SKY/WX    TMP DP  RH WIND       PRES   REMARKS
BEMIDJI        SUNNY     63  28  26 SE14      30.21F
HALLOCK        SUNNY     66  23  19 S24       30.15F
ROSEAU         SUNNY     66  27  22 S14       30.17F
WARROAD        SUNNY     64  34  32 SW12      30.19F
THIEF RVR FALL SUNNY     64  27  24 S16       30.19S
CROOKSTON      SUNNY     66  25  20 S20       30.18F
FOSSTON        SUNNY     64  19  17 SE17      30.19F
DETROIT LAKES  SUNNY     61  28  29 SE13      30.20F
MOORHEAD       SUNNY     66  21  18 SE16G22   30.17S
PARK RAPIDS    SUNNY     65  21  18 SE17      30.20F
MAHNOMEN       FAIR      63  23  21 SE14G21   30.18F
$$
MNZ006-009>011-018-025>026-051600-
   North Central Minnesota

CITY           SKY/WX    TMP DP  RH WIND       PRES   REMARKS
BAUDETTE       SUNNY     65  29  25 S9        30.20F
FLAG ISLAND    SUNNY     52  37  58 SE10      30.19S
INTL FALLS     SUNNY     65  26  23 S9        30.22F
WASKISH        SUNNY     66  28  24 S6G17     30.21F
BIG FORK       SUNNY     66  27  22 S8        30.24S
LONGVILLE      SUNNY     64  25  22 SE6       30.23F
GRAND RAPIDS   SUNNY     61  27  27 SE9       30.26S
CRANE LAKE     SUNNY     63  23  22 S9        30.26F
ORR            SUNNY     63  19  19 S9        30.23F
COOK           SUNNY     63  25  23 SE12G17   30.26F
WALKER         FAIR      62  26  25 SE8       30.21F
$$
MNZ012-019>021-037-051600-
   Northeast Minnesota

CITY           SKY/WX    TMP DP  RH WIND       PRES   REMARKS
DULUTH         SUNNY     61  30  31 SE13      30.27F
ELY            SUNNY     63  19  19 S10       30.27S
HIBBING        SUNNY     64  23  21 SE10G17   30.26F
EVELETH        SUNNY     63  23  22 SE13G20   30.27F
DULUTH HARBOR    N/A     46  36  66 E3        30.30S
TWO HARBORS    SUNNY     64  37  36 S6        30.27F
SILVER BAY     SUNNY     64  27  24 SE7       30.28S
GRAND MARAIS     N/A     49  32  52 CALM      30.31F
G MARAIS ARPRT SUNNY     59  19  21 S7        30.31S
$$
MNZ029>031-032-039>041-046>048-054>057-064-051600-
   West Central Minnesota

CITY           SKY/WX    TMP DP  RH WIND       PRES   REMARKS
FERGUS FALLS   SUNNY     64  27  24 SE17      30.18F
WHEATON        SUNNY     64  30  27 SE17      30.16F
MORRIS         SUNNY     68  28  22 E14       30.15F
ALEXANDRIA     SUNNY     64  31  28 E13       30.19F
ELBOW LAKE     FAIR      64  27  24 E15G22    30.17F
WADENA         SUNNY     61  30  31 SE15G21   30.20S
GLENWOOD       SUNNY     64  30  27 E14       30.19S
APPLETON       SUNNY     70  27  19 E12G18    30.13F
BENSON         SUNNY     66  25  20 SE12      30.15F
ORTONVILLE     SUNNY     63  27  25 SE10      30.14F
MADISON        SUNNY     64  27  24 E14       30.13F
WILLMAR        FAIR      66  34  30 E16       30.17F
$$
MNZ033>034-036-042>043-049>051-058-059-051600-
   Central Minnesota

CITY           SKY/WX    TMP DP  RH WIND       PRES   REMARKS
ST CLOUD       SUNNY     62  38  40 E12G17    30.19F
SAUK CENTRE    FAIR      62  36  37 E14       30.19S
PAYNESVILLE    SUNNY     59  34  39 NE8       30.18F
AITKIN         SUNNY     64  25  22 E9        30.22F
PINE RIVER     SUNNY     63  32  31 E13       30.24F
BRAINERD       SUNNY     62  31  31 VRB7      30.22F
STAPLES        SUNNY     61  23  23 E10       30.20F
LONG PRAIRIE   FAIR      61  34  36 E16       30.20F
LITTLE FALLS   SUNNY     63  30  29 E12G18    30.20F
LITCHFIELD     SUNNY     63  39  42 E13       30.18S
BUFFALO        SUNNY     61  39  45 E9        30.20F
MAPLE LAKE     SUNNY     62  45  53 E10       30.21S
$$
MNZ037-044-045-052-053-051600-
   East Central Minnesota

CITY           SKY/WX    TMP DP  RH WIND       PRES   REMARKS
PRINCETON      SUNNY     63  37  39 E8        30.21S
MORA           SUNNY     59  32  36 SE9       30.25S
CAMBRIDGE      SUNNY     64  43  45 SE13G21   30.20S
RUSH CITY      SUNNY     64  26  23 SE10      30.23F
MOOSE LAKE     SUNNY     63  32  31 SE6       30.23F
HINCKLEY       FAIR      63  32  31 E10       30.24F
CLOQUET        SUNNY     61  27  27 E5        30.26F
MCGREGOR       SUNNY     63  32  31 E13G18    30.24F
$$
MNZ071>073-080-081-089-090-097-098-051600-
   Southwest Minnesota

CITY           SKY/WX    TMP DP  RH WIND       PRES   REMARKS
MONTEVIDEO     SUNNY     68  28  22 SE15      30.14F
GRANITE FALLS  SUNNY     66  31  27 E12G17    30.15F
CANBY          SUNNY     61  29  30 E8        30.15F
MARSHALL       SUNNY     64  32  29 E16       30.13F
REDWOOD FALLS  MOSUNNY   65  37  35 E9        30.14F
OLIVIA         SUNNY     63  32  31 E13       30.14F
PIPESTONE      MOSUNNY   63  30  29 E12       30.11F
WINDOM         PTSUNNY   57  39  51 E12       30.14R
WORTHINGTON    CLOUDY    57  39  51 E12       30.13S
JACKSON        CLOUDY    61  45  55 E13       30.13S
TRACY          MOSUNNY   65  36  34 E14       30.13F
SLAYTON        CLOUDY    64  35  34 E14       30.13S
$$
MNZ065>067-074>077-082>085-091>093-051600-
   South Central Minnesota

CITY           SKY/WX    TMP DP  RH WIND       PRES   REMARKS
MANKATO        CLOUDY    59  46  63 E15       30.17R
NEW ULM        MOSUNNY   63  43  48 E10       30.15S
ST JAMES       CLOUDY    61  43  51 E13       30.15S
FAIRMONT       CLOUDY    57  48  72 E10       30.13S
GLENCOE        SUNNY     64  46  53 E13       30.17S
FARIBAULT      MOSUNNY   63  50  63 E18       30.18F
OWATONNA       PTSUNNY   57  50  77 SE20G32   30.18R
WASECA         CLOUDY    55  50  82 E23       30.18S
ALBERT LEA     CLOUDY    55  52  88 E17G23    30.17R
$$
MNZ078>079-086>088-094>096-051600-
   Southeast Minnesota

CITY           SKY/WX    TMP DP  RH WIND       PRES   REMARKS
ROCHESTER      CLOUDY    51  49  92 E14       30.22S
RED WING       MOSUNNY   63  41  45 SE14      30.20S
STANTON        MOSUNNY   62  46  53 E13G20    30.18S
DODGE CENTER   CLOUDY    54  52  94 E14       30.20R FOG
WINONA         CLOUDY    55  46  71 SE13      30.24S
AUSTIN         CLOUDY    52  50  93 E14G24    30.18S
PRESTON        CLOUDY    51  48  91 E13       30.22S
$$
ABBREVIATIONS USED IN REMARKS
   TC - TEMPERATURES IN CELSIUS
  WCI - WIND CHILL INDEX
   HX - HEAT INDEX
  VSB - VISIBILITY
$$



USA.gov is the U.S. government's official web portal to all federal, state and local government web resources and services.